[[{"header":{"parameterUnit":"m.s-1","parameterCategory":1,"la1":30.2991,"la2":30.254,"lo1":-89.0895,"lo2":-89.0444,"dy":0.0017,"dx":0.0017,"nx":28,"ny":28,"refTime":"2023-07-24T09:00:00:Z","depth":0,"parameterNumber":2,"parameterNumberName":"U-component_of_WINDS"},"data":[0,0,0,0,0,0,0,0,0,0,0,0,0,0,0,0,0,0,0,0,0,0,0,0,0,0,0,0,0,0,0,0,0,0,0,0,0,0,0,0,0,0,0,0,0,0,0,0,0,0,0,0,0,0,0,0,0,0,2.2925,2.2925,0,2.2968,2.2968,2.2969,2.2941,2.2939,2.2938,2.2937,2.298,2.2983,2.2985,0,0,0,0,0,0,0,0,0,0,0,0,0,2.2816,2.2818,2.2924,2.2925,2.2926,2.2968,2.2968,2.2969,2.2941,2.2939,2.2938,2.2936,2.298,2.2982,2.2985,0,0,0,0,0,0,0,0,0,0,0,0,0,2.2861,2.2818,2.2924,2.2917,2.2917,2.2967,2.2968,2.2969,2.2941,2.2939,2.2937,2.2936,2.2979,2.2982,2.2986,2.3046,0,0,2.2996,2.2998,0,0,0,0,0,0,0,0,2.2859,2.2865,2.2917,2.2917,2.2917,2.2947,2.2946,2.2995,2.2942,2.2932,2.2937,2.2935,2.2971,2.2975,2.2987,2.3048,2.305,2.2997,2.2999,2.3,2.3001,0,0,0,0,0,0,0,2.2856,2.2863,2.2942,2.2918,2.2918,2.291,2.2915,2.2955,2.2962,2.2933,2.2931,2.2936,2.297,2.2984,2.2988,2.3051,2.2997,2.3,2.3002,2.3003,2.316,2.3162,0,0,0,0,0,0,2.2853,2.2861,2.294,2.2943,2.2883,2.2914,2.2919,2.2939,2.2961,2.2963,2.2938,2.2935,2.2979,2.2984,2.2989,2.3059,2.3,2.3004,2.3006,2.3158,2.316,2.3162,0,0,0,0,0,0,2.2851,2.2861,2.2938,2.2901,2.2911,2.2918,2.2941,2.2941,2.2954,2.2965,2.2966,2.295,2.2977,2.2984,2.3031,2.306,2.3005,2.3008,2.3155,2.3158,2.3161,2.32,0,0,0,0,0,0,2.2848,2.286,2.2884,2.2902,2.2913,2.2981,2.2943,2.2943,2.2961,2.2957,2.2977,2.2979,2.2976,2.3026,2.3035,2.3064,2.3011,2.3153,2.3157,2.316,2.3196,2.3204,2.321,0,0,0,0,0,2.2844,2.2894,2.2885,2.2895,2.2943,2.2982,2.2988,2.2985,2.2963,2.2986,2.2993,2.2978,2.3056,2.3031,2.3041,2.3071,2.3151,2.3155,2.316,2.3193,2.3202,2.321,0,0,0,0,0,0,2.2879,2.2896,2.2887,2.2944,2.2962,2.2978,2.3007,2.2996,2.302,2.3016,2.3011,2.3015,2.3064,2.3073,2.3045,2.3129,2.31,2.3106,2.3121,2.313,2.3138,2.3133,2.3014,0,0,0,0,0,2.2894,2.2925,2.2938,2.2987,2.2996,2.3,2.3017,2.3013,2.3031,2.3039,2.3049,2.3067,2.3095,2.3113,2.314,2.3198,2.32,2.3223,2.323,2.3236,2.3241,2.3269,2.3278,2.3177,2.3177,2.3177,0,0,2.2924,2.2937,2.2957,2.2994,2.3008,2.3038,2.3007,2.3042,2.3064,2.3044,2.3088,2.3096,2.3116,2.3167,2.319,2.3176,2.327,2.3242,2.3246,2.3248,2.3274,2.3284,2.3292,2.318,2.318,2.3179,0,0,2.2994,2.3008,2.3048,2.3062,2.3082,2.3084,2.3094,2.3111,2.3115,2.3159,2.3144,2.317,2.322,2.3233,2.3247,2.3319,2.3305,2.3328,2.3365,2.3392,2.3399,2.3406,2.3429,2.3438,2.3333,2.3333,2.3334,0,2.3028,2.3075,2.3071,2.3106,2.3122,2.3104,2.3144,2.3157,2.3186,2.3196,2.318,2.3239,2.3252,2.3304,2.3321,2.3334,2.3343,2.3325,2.3399,2.3406,2.3412,2.3434,2.3442,2.3336,2.3336,2.3335,2.3335,0,2.3115,2.3147,2.3178,2.3204,2.3223,2.3261,2.3261,2.328,2.3274,2.3277,2.3321,2.3335,2.3362,2.3375,2.337,2.3426,2.3416,2.34,2.3369,2.3424,2.3444,2.3453,2.3339,2.3338,2.3338,2.3337,0,0,2.3208,2.323,2.3241,2.3251,2.3271,2.3296,2.3331,2.3358,2.3373,2.3393,2.3421,2.3463,2.3446,2.3462,2.3458,2.3482,2.3534,2.3462,2.3462,2.3472,2.3593,2.3603,2.3613,2.3525,2.3527,2.3528,2.359,0,2.3277,2.3339,2.3335,2.3393,2.3421,2.3403,2.3434,2.3449,2.3452,2.3476,2.348,2.3508,2.3486,2.3495,2.3518,2.3522,2.3557,2.3518,2.3549,2.355,2.3542,2.3624,2.3635,2.3693,2.3598,2.3599,2.36,0,2.3365,2.3386,2.3446,2.3459,2.3471,2.3498,2.352,2.3544,2.356,2.356,2.3576,2.3567,2.3601,2.3572,2.3618,2.3591,2.3604,2.3608,2.361,2.361,2.3577,2.3624,2.3712,2.3719,2.3613,2.3612,2.3611,0,2.3423,2.3467,2.3507,2.3517,2.3534,2.3553,2.3561,2.3575,2.359,2.3609,2.3619,2.3642,2.3655,2.3673,2.367,2.3649,2.3715,2.3686,2.3715,2.3715,2.3728,2.3726,2.3816,2.374,2.374,2.374,2.374,0,2.3499,2.3535,2.3533,2.3558,2.3598,2.3592,2.3632,2.3637,2.3649,2.3673,2.3661,2.3684,2.368,2.3703,2.3701,2.3737,2.3744,2.3744,2.3742,2.3743,2.3743,2.375,2.3745,2.3742,2.3742,2.3741,2.3741,0,2.357,2.357,2.3612,2.3624,2.3628,2.3656,2.3666,2.3688,2.369,2.3721,2.3728,2.3731,2.3756,2.3756,2.3786,2.3784,2.3828,2.3823,2.3822,2.382,2.3847,2.3843,2.3942,2.3953,2.3873,2.3874,2.3875,0,2.3617,2.3644,2.3658,2.3673,2.3681,2.3706,2.3721,2.3717,2.3732,2.375,2.377,2.3795,2.3814,2.3855,2.386,2.3882,2.3876,2.3909,2.3879,2.3878,2.3872,2.387,2.3871,2.3914,2.3915,2.3915,2.3916,0,2.3699,2.3697,2.3718,2.3739,2.3757,2.3773,2.3789,2.3802,2.3798,2.3817,2.3842,2.3857,2.3886,2.3909,2.393,2.3937,2.3925,2.3925,2.3933,2.3933,2.393,2.3928,2.3835,2.3923,2.3922,2.3922,2.3921,2.3921,2.3757,2.3779,2.3791,2.3815,2.3825,2.3839,2.386,2.3863,2.3885,2.3907,2.3904,2.3931,2.3944,2.397,2.3979,2.4,2.3988,2.3999,2.4002,2.4004,2.4005,2.3928,2.4004,2.4004,2.4004,2.4003,2.4003,0,2.3835,2.3842,2.3864,2.3884,2.3902,2.3889,2.3905,2.392,2.3945,2.3958,2.3976,2.4004,2.4026,2.4031,2.4052,2.4068,2.4063,2.4073,2.4071,2.4072,2.4016,2.4006,2.4077,2.4077,2.4077,2.4077,2.4077,2.4077,2.3878,2.3914,2.3913,2.3953,2.3959,2.3985,2.3995,2.4007,2.4016,2.4047,2.4065,2.4069,2.4078,2.4099,2.4118,2.4119,2.4125,2.4138,2.4136,2.4084,2.4076,2.4069,2.406,2.414,2.414,2.4189,2.419,2.419]},{"header":{"parameterUnit":"m.s-1","parameterCategory":1,"la1":30.2991,"la2":30.254,"lo1":-89.0895,"lo2":-89.0444,"dy":0.0017,"dx":0.0017,"nx":28,"ny":28,"refTime":"2023-07-24T09:00:00:Z","depth":0,"parameterNumber":3,"parameterNumberName":"V-component_of_WINDS"},"data":[0,0,0,0,0,0,0,0,0,0,0,0,0,0,0,0,0,0,0,0,0,0,0,0,0,0,0,0,0,0,0,0,0,0,0,0,0,0,0,0,0,0,0,0,0,0,0,0,0,0,0,0,0,0,0,0,0,0,0.6343,0.6344,0,0.6384,0.6385,0.6385,0.6377,0.6376,0.6375,0.6375,0.6417,0.6419,0.6421,0,0,0,0,0,0,0,0,0,0,0,0,0,0.6258,0.6259,0.6343,0.6344,0.6344,0.6384,0.6385,0.6385,0.6377,0.6376,0.6375,0.6374,0.6417,0.6419,0.6421,0,0,0,0,0,0,0,0,0,0,0,0,0,0.6296,0.626,0.6343,0.6345,0.6346,0.6384,0.6385,0.6385,0.6377,0.6376,0.6375,0.6374,0.6416,0.6419,0.6421,0.6461,0,0,0.643,0.6431,0,0,0,0,0,0,0,0,0.6294,0.63,0.6344,0.6345,0.6346,0.6374,0.637,0.6411,0.6377,0.6365,0.6375,0.6373,0.6404,0.6408,0.6418,0.6463,0.6465,0.643,0.6432,0.6433,0.6434,0,0,0,0,0,0,0,0.6292,0.6298,0.636,0.6345,0.6346,0.6344,0.6348,0.6378,0.639,0.6366,0.6366,0.637,0.6404,0.6415,0.6419,0.6466,0.643,0.6432,0.6434,0.6435,0.6543,0.6544,0,0,0,0,0,0,0.6288,0.6296,0.6358,0.6361,0.6317,0.6346,0.6351,0.6366,0.639,0.6393,0.6371,0.637,0.6411,0.6416,0.642,0.6467,0.6433,0.6436,0.6437,0.6542,0.6544,0.6545,0,0,0,0,0,0,0.6286,0.6294,0.6357,0.6328,0.6336,0.6349,0.6366,0.6368,0.6379,0.6394,0.6396,0.638,0.641,0.6416,0.645,0.6469,0.6437,0.6439,0.6541,0.6543,0.6544,0.6562,0,0,0,0,0,0,0.6284,0.6293,0.6309,0.6328,0.6337,0.6387,0.6367,0.6369,0.6383,0.6382,0.6403,0.6406,0.641,0.6446,0.6453,0.6472,0.6441,0.6539,0.6542,0.6544,0.656,0.6564,0.6568,0,0,0,0,0,0.6281,0.6313,0.631,0.6317,0.6357,0.6388,0.6393,0.6397,0.6385,0.64,0.641,0.6405,0.6465,0.645,0.6458,0.6477,0.6538,0.6541,0.6544,0.6558,0.6564,0.6568,0,0,0,0,0,0,0.6296,0.6316,0.6312,0.6352,0.6368,0.6386,0.6406,0.6403,0.6423,0.6421,0.6425,0.643,0.6464,0.6474,0.6457,0.6516,0.65,0.6504,0.6509,0.6514,0.6518,0.6515,0.6444,0,0,0,0,0,0.6304,0.6327,0.6343,0.6376,0.6384,0.6393,0.6407,0.6408,0.6426,0.6433,0.6445,0.6462,0.6484,0.65,0.6521,0.6561,0.6565,0.6578,0.6582,0.6585,0.6589,0.661,0.6615,0.6554,0.6554,0.6554,0,0,0.6321,0.6334,0.6349,0.6379,0.6392,0.6415,0.64,0.6426,0.6443,0.6437,0.647,0.6479,0.6498,0.6535,0.6551,0.6544,0.6607,0.6589,0.6591,0.6594,0.6613,0.6619,0.6624,0.6556,0.6555,0.6555,0,0,0.6363,0.6376,0.6404,0.6416,0.6436,0.6441,0.6448,0.6466,0.6472,0.6505,0.65,0.652,0.656,0.6573,0.6585,0.663,0.6626,0.6637,0.6658,0.6678,0.6683,0.6687,0.6702,0.6708,0.664,0.664,0.6641,0,0.6381,0.6417,0.6419,0.6445,0.6458,0.6452,0.648,0.6493,0.6518,0.6527,0.6518,0.6566,0.6579,0.6618,0.6628,0.6638,0.6646,0.6635,0.6682,0.6686,0.669,0.6705,0.6711,0.6642,0.6642,0.6641,0.6641,0,0.6438,0.6462,0.6483,0.6506,0.6522,0.6549,0.6555,0.657,0.6569,0.6576,0.6608,0.6622,0.6646,0.6656,0.6656,0.6694,0.6689,0.6681,0.6665,0.6697,0.6711,0.6717,0.6643,0.6643,0.6643,0.6642,0,0,0.6493,0.6515,0.6523,0.6533,0.6553,0.6571,0.6597,0.662,0.6633,0.665,0.6671,0.6704,0.6695,0.6709,0.671,0.6728,0.6761,0.6717,0.6718,0.6725,0.6803,0.6809,0.6816,0.6758,0.6759,0.676,0.6801,0,0.6537,0.6582,0.6584,0.6626,0.6648,0.6641,0.6664,0.6678,0.6684,0.6703,0.671,0.6733,0.6721,0.6728,0.6745,0.6753,0.6777,0.675,0.6778,0.6779,0.6774,0.6823,0.683,0.6869,0.6807,0.6808,0.6808,0,0.6594,0.6612,0.6656,0.667,0.668,0.67,0.672,0.6738,0.6754,0.6757,0.6771,0.6769,0.6795,0.6777,0.6812,0.6794,0.6805,0.6811,0.6812,0.6816,0.6796,0.6827,0.6881,0.6887,0.6817,0.6816,0.6816,0,0.6629,0.6664,0.6694,0.6703,0.6721,0.6735,0.6744,0.6758,0.6771,0.6788,0.6796,0.6816,0.6828,0.6843,0.6846,0.6833,0.6881,0.6864,0.6884,0.6884,0.6896,0.6895,0.6952,0.6902,0.6902,0.6902,0.6902,0,0.6678,0.6705,0.671,0.6729,0.6758,0.6759,0.6788,0.6795,0.6808,0.6827,0.6823,0.6841,0.6844,0.6863,0.6866,0.6894,0.6899,0.6902,0.6903,0.6903,0.6903,0.6911,0.6908,0.6904,0.6903,0.6903,0.6903,0,0.6723,0.6727,0.676,0.6773,0.6777,0.6798,0.681,0.6828,0.6832,0.6857,0.6863,0.687,0.6892,0.6897,0.6923,0.6924,0.6958,0.6956,0.6953,0.6953,0.6972,0.697,0.7037,0.7045,0.699,0.6991,0.6991,0,0.6754,0.6774,0.679,0.6802,0.6811,0.6831,0.6844,0.6845,0.6858,0.6876,0.6891,0.6912,0.6929,0.6964,0.6972,0.6991,0.699,0.7011,0.6993,0.6991,0.699,0.6988,0.699,0.7015,0.7016,0.7016,0.7017,0,0.6809,0.6809,0.6828,0.6846,0.6861,0.6876,0.689,0.69,0.6903,0.6918,0.694,0.6953,0.6979,0.7,0.7019,0.7027,0.7022,0.7022,0.7028,0.7029,0.7026,0.7027,0.6963,0.7021,0.7021,0.702,0.702,0.702,0.6848,0.6865,0.6878,0.6898,0.6908,0.6921,0.6937,0.6943,0.6961,0.6982,0.6981,0.7005,0.7018,0.7043,0.7052,0.707,0.7063,0.7072,0.7074,0.7076,0.7078,0.7022,0.7074,0.7074,0.7074,0.7073,0.7073,0,0.6902,0.6909,0.6927,0.6946,0.6962,0.6955,0.697,0.6983,0.7004,0.7016,0.7032,0.7056,0.7076,0.7084,0.7103,0.7116,0.7115,0.7121,0.7121,0.7122,0.7083,0.7076,0.7122,0.7122,0.7122,0.7122,0.7122,0.7122,0.6932,0.696,0.6962,0.6994,0.7002,0.7024,0.7033,0.7044,0.7054,0.7081,0.7097,0.7102,0.7113,0.7132,0.7149,0.7151,0.7158,0.7166,0.7167,0.713,0.7125,0.712,0.7114,0.7167,0.7167,0.7205,0.7205,0.7205]}]]